This is the latest recevied weather packets stored in our database for station/object KI4NG. If no packets are shown the sender has not sent any weather packets the latest 10 day(s).
| Time | Temp. | Humidity | Pressure | Rain* | Wind** | Luminosity | Snow |
|---|---|---|---|---|---|---|---|
| 1778056820 | 18.33° C | 77% | 1008.5 hPa | 0 mm | - | 0 W/m² | - |
| 1778056518 | 18.33° C | 77% | 1008.9 hPa | 0 mm | - | 0 W/m² | - |
| 1778056215 | 18.33° C | 77% | 1008.7 hPa | 0 mm | - | 0 W/m² | - |
| 1778055912 | 18.33° C | 78% | 1008.8 hPa | 0 mm | - | 0 W/m² | - |
| 1778055607 | 18.33° C | 77% | 1008.7 hPa | 0 mm | - | 0 W/m² | - |
| 1778055306 | 18.33° C | 76% | 1008.7 hPa | 0 mm | - | 0 W/m² | - |
| 1778055003 | 18.33° C | 78% | 1008.7 hPa | 0 mm | - | 0 W/m² | - |
| 1778054700 | 18.33° C | 77% | 1008.9 hPa | 0 mm | - | 0 W/m² | - |
| 1778054397 | 18.33° C | 77% | 1008.8 hPa | 0 mm | - | 0 W/m² | - |
| 1778054095 | 18.33° C | 77% | 1008.6 hPa | 0 mm | - | 0 W/m² | - |
| 1778053791 | 18.33° C | 77% | 1008.9 hPa | 0 mm | - | 0 W/m² | - |
| 1778053489 | 18.33° C | 76% | 1009 hPa | 0 mm | - | 0 W/m² | - |
| 1778053186 | 18.33° C | 77% | 1008.9 hPa | 0 mm | - | 0 W/m² | - |
| 1778052884 | 18.33° C | 76% | 1008.7 hPa | 0 mm | - | 0 W/m² | - |
| 1778052581 | 18.33° C | 77% | 1008.8 hPa | 0 mm | - | 0 W/m² | - |
| 1778052278 | 17.78° C | 79% | 1008.6 hPa | 0 mm | - | 0 W/m² | - |
| 1778051976 | 18.33° C | 77% | 1008.6 hPa | 0 mm | - | 0 W/m² | - |
| 1778051674 | 18.33° C | 77% | 1008.8 hPa | 0 mm | - | 0 W/m² | - |
| 1778051370 | 17.78° C | 79% | 1008.8 hPa | 0 mm | - | 0 W/m² | - |
| 1778051067 | 17.78° C | 79% | 1009 hPa | 0 mm | - | 0 W/m² | - |
| 1778050764 | 17.78° C | 78% | 1008.9 hPa | 0 mm | - | 0 W/m² | - |
| 1778050462 | 17.78° C | 79% | 1009.1 hPa | 0 mm | - | 0 W/m² | - |
| 1778050158 | 17.78° C | 80% | 1009.3 hPa | 0 mm | - | 0 W/m² | - |
| 1778049854 | 17.78° C | 77% | 1009.3 hPa | 0 mm | - | 0 W/m² | - |
| 1778049551 | 17.78° C | 80% | 1009.4 hPa | 0 mm | - | 0 W/m² | - |
* Rain latest hour (hover to see other rain measurements)
** Current wind speed in m/s (hover to see current wind gust speed)